Weather History for Sydney, NW

Change the Weather History Date:

Tuesday, November 6, 2012

  Actual Average Record
Temperature  
Mean Temperature 75 °F -  
Max Temperature 82 °F 76 °F 89 °F (2011)
Min Temperature 68 °F 60 °F 53 °F (1996)
Cooling Degree Days 10    
Growing Degree Days 25 (Base 50)    
Moisture  
Dew Point 62 °F    
Average Humidity 64    
Maximum Humidity 83    
Minimum Humidity 40    
Precipitation  
Precipitation 0.00 in 0.13 in - ()
Sea Level Pressure  
Sea Level Pressure 29.94 in    
Wind  
Wind Speed 13 mph ()    
Max Wind Speed 34 mph    
Max Gust Speed 44 mph    
Visibility 8.2 miles    
Events Rain    
Averages and records for this station are not official NWS values.
T = Trace of Precipitation, MM = Missing Value Source: Averaged Metar Reports

Daily Weather History Graph

Daily Weather History Graph

Search for Another Location

Airport:

Trip Planner

Search our weather history database for the weather conditions in past years. The results will help you decide how hot, cold, wet, or windy it might be!

Date:

Astronomy

Nov. 06, 2012 Rise Set
Actual Time 5:50 AM AEDT 7:28 PM AEDT
Civil Twilight 5:23 AM AEDT 7:55 PM AEDT
Nautical Twilight 4:51 AM AEDT 8:27 PM AEDT
Astronomical Twilight 4:17 AM AEDT 9:01 PM AEDT
Moon 12:32 AM AEDT (11/6) 11:25 AM AEDT (11/6)
Length of Visible Light 14h 31m
Length of Day
13h 37m
Waning Gibbous, 60% of the Moon is Illuminated
Nov 6
Waning Gibbous
Nov 7
Last Quarter
Nov 14
New
Nov 21
First Quarter
Nov 29
Full

Hourly Weather History & Observations

Time (AEDT) Temp. Heat Index Dew Point Humidity Pressure Visibility Wind Dir Wind Speed Gust Speed Precip Events Conditions
12:00 AM 72 °F - 61 °F 59% 29.99 in 14 mi NE 8.1 mph - -   Partly Cloudy
12:00 AM 71.6 °F - 60.8 °F 69% 29.98 in - NE 8.1 mph - N/A   Clear
12:30 AM 71.6 °F - 60.8 °F 69% 29.98 in - North 6.9 mph - N/A   Clear
1:00 AM 69.8 °F - 62.6 °F 78% 29.98 in - NNE 6.9 mph - N/A   Clear
1:30 AM 69.8 °F - 62.6 °F 78% 29.95 in - NNE 8.1 mph - N/A   Clear
2:00 AM 70 °F - 62 °F 70% 29.96 in - NNE 8.1 mph - -  
2:00 AM 69.8 °F - 62.6 °F 78% 29.95 in - NNE 8.1 mph - N/A   Clear
2:30 AM 69.8 °F - 62.6 °F 78% 29.95 in - NNE 6.9 mph - N/A   Clear
3:00 AM 70 °F - 62 °F 69% 29.94 in 11 mi NNE 6.9 mph - -   Haze
3:00 AM 69.8 °F - 62.6 °F 78% 29.92 in - NNE 6.9 mph - N/A   Clear
3:30 AM 69.8 °F - 62.6 °F 78% 29.95 in - ENE 6.9 mph - N/A   Clear
4:00 AM 69.8 °F - 62.6 °F 78% 29.95 in - NE 6.9 mph - N/A   Clear
4:30 AM 69.8 °F - 62.6 °F 78% 29.95 in - NE 8.1 mph - N/A   Clear
5:00 AM 69 °F - 63 °F 74% 29.97 in - NE 8.1 mph - -  
5:00 AM 68.0 °F - 62.6 °F 83% 29.95 in - NE 8.1 mph - N/A   Clear
6:00 AM 69 °F - 63 °F 74% 30.00 in 12 mi NNE 10.4 mph - -   Partly Cloudy
6:00 AM 69.8 °F - 62.6 °F 78% 29.98 in 6.2 mi NNE 10.4 mph - N/A   Mostly Cloudy
6:30 AM 69.8 °F - 62.6 °F 78% 29.98 in - NNE 10.4 mph - N/A   Clear
7:00 AM 71.6 °F - 62.6 °F 73% 29.98 in - NNE 11.5 mph - N/A   Clear
7:30 AM 73.4 °F - 60.8 °F 65% 29.98 in - NNE 12.7 mph - N/A   Clear
8:00 AM 73 °F - 61 °F 57% 30.00 in - NNE 12.7 mph - -  
8:00 AM 73.4 °F - 60.8 °F 65% 29.98 in - NNE 12.7 mph - N/A   Clear
8:30 AM 77.0 °F - 60.8 °F 57% 29.98 in - NNE 10.4 mph - N/A   Clear
9:00 AM 78 °F - 60 °F 45% 30.00 in 12 mi NNE 9.2 mph - -   Partly Cloudy
9:00 AM 78.8 °F - 60.8 °F 54% 29.98 in - NNE 9.2 mph - N/A   Clear
9:30 AM 80.6 °F 81.1 °F 59.0 °F 48% 29.98 in - NNE 6.9 mph - N/A   Clear
10:00 AM 78.8 °F - 60.8 °F 54% 29.98 in - ENE 6.9 mph - N/A   Clear
10:30 AM 78.8 °F - 62.6 °F 57% 29.98 in - East 13.8 mph - N/A   Clear
11:00 AM 78 °F - 61 °F 47% 29.99 in - ENE 15.0 mph - -  
11:00 AM 77.0 °F - 60.8 °F 57% 29.98 in - ENE 15.0 mph - N/A   Clear
11:30 AM 77.0 °F - 60.8 °F 57% 29.98 in - NE 15.0 mph - N/A   Clear
12:00 PM 80 °F - 60 °F 41% 29.96 in 12 mi NE 17.3 mph - -   Haze
12:00 PM 80.6 °F 81.5 °F 60.8 °F 51% 29.95 in - NNE 17.3 mph - N/A   Clear
12:30 PM 80.6 °F 81.5 °F 60.8 °F 51% 29.95 in - NNE 21.9 mph - N/A   Clear
1:00 PM 82.4 °F 82.5 °F 59.0 °F 45% 29.92 in - NE 24.2 mph - N/A   Clear
1:30 PM 80.6 °F 81.1 °F 59.0 °F 48% 29.92 in - NE 27.6 mph - N/A   Clear
2:00 PM 79 °F - 60 °F 42% 29.92 in - NE 28.8 mph - -  
2:00 PM 78.8 °F - 60.8 °F 54% 29.92 in - NE 28.8 mph - N/A   Clear
2:30 PM 80.6 °F 81.5 °F 60.8 °F 51% 29.89 in - NE 28.8 mph - N/A   Clear
3:00 PM 80 °F - 60 °F 40% 29.89 in 11 mi NE 29.9 mph - -   Haze
3:00 PM 80.6 °F 81.5 °F 60.8 °F 51% 29.89 in - NE 29.9 mph - N/A   Clear
3:19 PM 78.8 °F - 59.0 °F 51% 29.86 in - NE 32.2 mph 43.7 mph N/A   Clear
3:30 PM 78.8 °F - 59.0 °F 51% 29.86 in - NE 34.5 mph - N/A   Clear
4:00 PM 78.8 °F - 59.0 °F 51% 29.86 in - NE 33.4 mph - N/A   Clear
4:24 PM 77.0 °F - 60.8 °F 57% 29.86 in - NE 28.8 mph 40.3 mph N/A   Clear
4:30 PM 78.8 °F - 60.8 °F 54% 29.89 in - NE 27.6 mph - N/A   Clear
5:00 PM 75 °F - 61 °F 53% 29.89 in - NE 29.9 mph - -  
5:00 PM 75.2 °F - 60.8 °F 61% 29.89 in - NE 29.9 mph - N/A   Clear
5:14 PM 75.2 °F - 62.6 °F 65% 29.86 in - NE 27.6 mph 39.1 mph N/A   Clear
5:30 PM 75.2 °F - 62.6 °F 65% 29.89 in - NE 29.9 mph 42.6 mph N/A   Clear
6:00 PM 74 °F - 62 °F 58% 29.90 in 9 mi NE 29.9 mph - -   Haze
6:00 PM 73.4 °F - 62.6 °F 69% 29.89 in - NE 29.9 mph 41.4 mph N/A   Clear
6:30 PM 73.4 °F - 62.6 °F 69% 29.89 in 6.2 mi NE 28.8 mph 42.6 mph N/A   Mostly Cloudy
7:00 PM 73.4 °F - 62.6 °F 69% 29.89 in 6.2 mi NNE 25.3 mph - N/A   Mostly Cloudy
7:17 PM 73.4 °F - 62.6 °F 69% 29.89 in 6.2 mi NNE 25.3 mph 41.4 mph N/A Rain Light Rain Showers
7:30 PM 71.6 °F - 62.6 °F 73% 29.92 in 6.2 mi NE 26.5 mph - N/A   Mostly Cloudy
8:00 PM 71 °F - 63 °F 70% 29.94 in - NNE 24.2 mph - -  
8:00 PM 71.6 °F - 62.6 °F 73% 29.92 in 6.2 mi NNE 24.2 mph - N/A   Mostly Cloudy
8:30 PM 71.6 °F - 62.6 °F 73% 29.95 in 6.2 mi NNE 25.3 mph - N/A   Mostly Cloudy
9:00 PM 71 °F - 63 °F 68% 29.97 in 9 mi NNE 18.4 mph - -   Haze
9:00 PM 71.6 °F - 62.6 °F 73% 29.95 in 6.2 mi NNE 18.4 mph - N/A   Mostly Cloudy
9:30 PM 71.6 °F - 62.6 °F 73% 29.95 in 6.2 mi NNE 20.7 mph - N/A   Mostly Cloudy
10:00 PM 71.6 °F - 62.6 °F 73% 29.95 in 6.2 mi NNE 18.4 mph - N/A   Mostly Cloudy
10:10 PM 71.6 °F - 62.6 °F 73% 29.95 in 6.2 mi NNE 17.3 mph 28.8 mph N/A   Mostly Cloudy
10:30 PM 71.6 °F - 62.6 °F 73% 29.95 in 6.2 mi NNE 17.3 mph - N/A   Mostly Cloudy
11:00 PM 71 °F - 62 °F 65% 29.97 in - NNE 11.5 mph - -  
11:00 PM 71.6 °F - 62.6 °F 73% 29.95 in - NNE 11.5 mph - N/A   Clear
11:30 PM 69.8 °F - 62.6 °F 78% 29.95 in - NNE 8.1 mph - N/A   Clear